Regional Weather Roundup
Issued by NWS

Home | Current Version | Previous Version | Text Only | Print | Product List | Glossary On
Versions: 1 2 3 4 5 6 7 8 9 10 11 12 13 14 15 16 17 18 19 20 21 22 23 24 25 26 27 28 29 30 31 32 33 34 35 36 37 38 39 40 41 42 43 44 45 46 47 48 49 50
000
ASUS43 KTOP 210708
RWRKS

WEATHER ROUNDUP FOR KANSAS
NATIONAL WEATHER SERVICE GOODLAND KS
200 AM CDT THU AUG 21 2014

NOTE:  "FAIR" INDICATES FEW OR NO CLOUDS BELOW 12,000 FEET WITH NO
SIGNIFICANT WEATHER AND/OR OBSTRUCTIONS TO VISIBILITY.

KSZ001>006-013>018-027>032-041>047-210800-
NORTHWEST KANSAS

CITY           SKY/WX    TMP DP  RH WIND       PRES   REMARKS
GOODLAND       PTCLDY    66  61  84 NW14G24   29.86R
HAYS           MOCLDY    82  61  47 S17G23    29.81F
HILL CITY      CLOUDY    86  61  42 S16G25    29.77S
RUSSELL        MOCLDY    82  61  48 S23G30    29.79F
$$

KSZ061>065-074>080-084>089-210800-
SOUTHWEST KANSAS

CITY           SKY/WX    TMP DP  RH WIND       PRES   REMARKS
DODGE CITY     CLEAR     80  60  50 S15       29.86S
ELKHART          N/A     77  59  54 S14         N/A
GARDEN CITY    CLEAR     78  60  53 S14       29.85S
GREAT BEND     CLEAR     82  59  44 S22G28    29.83S
LIBERAL        CLEAR     82  59  44 S20       29.89S
PRATT          CLEAR     79  59  50 S18G24    29.87F
$$

KSZ066>073-081>083-090>101-210800-
SOUTHEAST KANSAS

CITY           SKY/WX    TMP DP  RH WIND       PRES   REMARKS
CHANUTE        CLEAR     80  68  66 S15       29.93S
COFFEYVILLE    CLEAR     80  70  71 S10       29.93S
HUTCHINSON     CLEAR     81  65  58 S14G24    29.86S
MEDICINE LODGE   N/A     81  64  56 S8        29.86S
NEWTON         CLEAR     81  63  54 S18G25    29.91S
PARSONS        CLEAR     77  68  73 S6        29.95S
WICHITA INTL   PTCLDY    80  66  62 S16       29.87F
WICHITA JABRA  CLEAR     80  66  62 S16G25    29.88S
WICHITA MCCONL CLEAR     80  67  65 S17       29.89S
WINFIELD       CLEAR     80  68  66 S16G23    29.90F
$$

KSZ007>012-019>026-033>040-048>060-102>105-210800-
NORTHEAST KANSAS

CITY           SKY/WX    TMP DP  RH WIND       PRES   REMARKS
CONCORDIA      PTCLDY    80  66  62 S20G32    29.80R
EMPORIA        CLEAR     78  69  73 S16       29.89R
LAWRENCE       PTCLDY    83  68  60 S14       29.88F
MANHATTAN      CLEAR     83  66  56 S17G26    29.83S
MARYSVILLE     PTCLDY    81  66  61 S16       29.82S
OLATHE IND     CLEAR     78  67  68 S15       29.91S
OLATHE EXE     CLEAR     77  67  71 S12       29.91S
SALINA         CLEAR     82  66  58 S14G25    29.82S
TOPEKA BILLARD PTCLDY    83  70  64 S14G21    29.86F
TOPEKA FORBES  PTCLDY    81  69  67 S14       29.87F
$$


USA.gov is the U.S. government's official web portal to all federal, state and local government web resources and services.